Regional Weather Roundup
Issued by NWS Goodland, KS

Home | Current Version | Previous Version | Graphics & Text | Print | Product List | Glossary On
Versions: 1 2 3 4 5 6 7 8 9 10 11 12 13 14 15 16 17 18 19 20 21 22 23 24 25 26 27 28 29 30 31 32 33 34 35 36 37 38 39 40 41 42 43 44 45 46 47 48 49 50
000
ASUS43 KGLD 050159
RWRGLD

GOODLAND FORECAST AREA HOURLY WEATHER ROUNDUP
NATIONAL WEATHER SERVICE GOODLAND KS
800 PM MDT SAT JUL 04 2015

...OFFICIAL OBSERVATIONS...

CITY           SKY/WX    TMP DP  RH WIND       PRES   REMARKS
GOODLAND KS    PTCLDY    83  63  50 SE16      29.89R
HILL CITY KS   MOCLDY    87  63  44 SE12      29.87R
IMPERIAL NEB   MOCLDY    87  59  38 SE17G23   29.84R
MCCOOK NEB     CLOUDY    86  62  44 SE18      29.84R
AKRON CO       MOCLDY    78  53  41 SE14      29.92R
BURLINGTON CO  CLOUDY    85  58  39 SE18      29.91R
LIMON CO       CLOUDY    78  51  38 W21G26    30.00R
$$

...UNOFFICIAL OBSERVATIONS...

CITY           SKY/WX    TMP DP  RH WIND       PRES   REMARKS
COLBY KS       CLEAR     88  64  45 SE14      29.90R
GOVE KS          N/A     87  32  14 MISG        N/A
NORTON KS      CLEAR     82  57  42 SE10G17   29.86S
SHARON SPRINGS   N/A     87  61  41 S17G26      N/A
KIT CARSON CO    N/A     88  53  30 MISG        N/A
$$


USA.gov is the U.S. government's official web portal to all federal, state and local government web resources and services.